Terminal Aerodrome Forecast
Issued by NWS Melbourne, FL

Home | Current Version | Previous Version | Text Only | Print | Product List | Glossary On
Versions: 1 2 3 4 5 6 7 8 9 10 11 12 13 14 15 16 17 18 19 20 21 22 23 24 25 26
000
FTUS42 KMLB 160500
TAFMCO
TAF
KMCO 160531Z 1606/1706 33011KT P6SM FEW020 BKN200
      TEMPO 1606/1607 BKN019
     FM161300 36013G20KT P6SM SCT050 SCT250
     FM161500 03016G25KT P6SM SCT050
     FM170000 02010KT P6SM BKN035=

USA.gov is the U.S. government's official web portal to all federal, state and local government web resources and services.